W4TBD-13 Weather Reports


time (UTC)temp
F
wind
direction
speed
knots
gust
knots
rain 1hr
in
rain 24hr
in
rain mn
in
humidity
%
barometer
mb
20260510153504 80 320 0.9 0.9 0.00 0.00 0.00 47 1004.8
20260510152504 80 315 0.0 1.7 0.00 0.00 0.00 46 1004.9
20260510152005 79 171 0.9 1.7 0.00 0.00 0.00 46 1004.8
20260510151504 78 351 0.9 1.7 0.00 0.00 0.00 46 1004.7
20260510151004 78 352 1.7 1.7 0.00 0.00 0.00 48 1005.0
20260510150504 78 348 0.9 1.7 0.00 0.00 0.00 50 1004.8
20260510145505 77 333 0.0 0.9 0.00 0.00 0.00 50 1004.9
20260510145004 78 273 0.9 0.9 0.00 0.00 0.00 50 1004.8
20260510144505 78 143 0.9 0.9 0.00 0.00 0.00 49 1004.8
20260510143004 77 352 0.9 1.7 0.00 0.00 0.00 55 1004.8
20260510142505 77 103 0.9 1.7 0.00 0.00 0.00 52 1004.6
20260510141504 75 309 0.0 1.7 0.00 0.00 0.00 58 1004.8
20260510141006 75 190 0.0 1.7 0.00 0.00 0.00 58 1004.7
20260510140004 73 205 0.0 0.9 0.00 0.00 0.00 60 1004.7
20260510135504 73 329 0.9 0.9 0.00 0.00 0.00 57 1004.6
20260510135004 73 329 0.9 0.9 0.00 0.00 0.00 62 1004.7
20260510134505 73 196 0.0 1.7 0.00 0.00 0.00 62 1004.5
20260510134004 73 223 0.9 1.7 0.00 0.00 0.00 61 1004.7
20260510133504 73 197 0.9 0.9 0.00 0.00 0.00 63 1004.6
20260510133004 72 4 0.0 0.0 0.00 0.00 0.00 66 1004.8
20260510132006 70 4 0.0 0.9 0.00 0.00 0.00 70 1004.7
20260510130504 69 4 0.0 0.9 0.00 0.00 0.00 72 1004.8
20260510125505 69 5 0.9 0.9 0.00 0.00 0.00 74 1004.4
20260510125004 67 4 0.0 0.0 0.00 0.00 0.00 74 1004.3
20260510124504 66 4 0.0 0.9 0.00 0.00 0.00 77 1004.5
20260510124004 66 4 0.0 0.9 0.00 0.00 0.00 80 1004.3
20260510123504 64 5 0.0 0.9 0.00 0.00 0.00 82 1004.3
20260510123004 63 4 0.0 0.9 0.00 0.00 0.00 84 1004.5
20260510122004 60 5 0.0 0.0 0.00 0.00 0.00 93 1004.2
20260510121505 60 5 0.0 0.0 0.00 0.00 0.00 96 1004.2
20260510121004 59 6 0.0 0.0 0.00 0.00 0.00 97 1004.2
20260510120504 59 6 0.0 0.0 0.00 0.00 0.00 97 1004.1
20260510120004 58 6 0.0 0.0 0.00 0.00 0.00 98 1003.9
20260510115504 58 6 0.0 0.0 0.00 0.00 0.00 98 1003.8
20260510115004 57 6 0.0 0.0 0.00 0.00 0.00 98 1003.8
20260510114004 56 6 0.0 0.0 0.00 0.00 0.00 98 1003.7
20260510113504 56 6 0.0 0.0 0.00 0.00 0.00 98 1003.6
20260510113004 55 6 0.0 0.0 0.00 0.00 0.00 97 1003.8
20260510112504 55 6 0.0 0.0 0.00 0.00 0.00 97 1003.6
20260510111504 54 6 0.0 0.0 0.00 0.00 0.00 97 1003.4
20260510111004 54 6 0.0 0.0 0.00 0.00 0.00 97 1003.2
20260510110504 54 6 0.0 0.0 0.00 0.00 0.00 97 1003.3
20260510110005 54 6 0.0 0.0 0.00 0.00 0.00 97 1003.1
20260510105504 53 6 0.0 0.0 0.00 0.00 0.00 97 1003.3
20260510104505 54 6 0.0 0.0 0.00 0.00 0.00 97 1003.4
20260510104004 53 6 0.0 0.0 0.00 0.00 0.00 97 1003.1
20260510103504 53 6 0.0 0.0 0.00 0.00 0.00 96 1002.8
20260510103005 54 6 0.0 0.0 0.00 0.00 0.00 96 1002.7
20260510102504 54 6 0.0 0.0 0.00 0.00 0.00 96 1002.8
20260510102004 54 6 0.0 0.0 0.00 0.00 0.00 96 1002.7
20260510101503 54 6 0.0 0.0 0.00 0.00 0.00 96 1002.7
20260510101004 54 6 0.0 0.0 0.00 0.00 0.00 96 1002.7
20260510100504 54 6 0.0 0.0 0.00 0.00 0.00 96 1002.4
20260510100004 54 6 0.0 0.0 0.00 0.00 0.00 96 1002.3
20260510095504 54 6 0.0 0.0 0.00 0.00 0.00 95 1002.4
20260510095004 54 6 0.0 0.0 0.00 0.00 0.00 95 1002.1
20260510094504 55 6 0.0 0.9 0.00 0.00 0.00 95 1002.1
20260510093504 55 6 0.0 0.0 0.00 0.00 0.00 96 1001.9
20260510093004 55 6 0.0 0.0 0.00 0.00 0.00 96 1002.0
20260510092504 55 6 0.0 0.0 0.00 0.00 0.00 96 1002.3
20260510092004 56 6 0.0 0.0 0.00 0.00 0.00 96 1002.1
20260510091004 56 6 0.0 0.0 0.00 0.00 0.00 96 1002.1
20260510090504 56 6 0.0 0.0 0.00 0.00 0.00 96 1002.0
20260510085504 56 6 0.0 0.0 0.00 0.00 0.00 96 1002.1
20260510085005 57 6 0.0 0.0 0.00 0.00 0.00 96 1001.6
20260510084505 57 6 0.0 0.0 0.00 0.00 0.00 96 1001.5
20260510083504 57 14 0.0 0.9 0.00 0.00 0.00 96 1001.8
20260510083004 57 14 0.0 0.9 0.00 0.00 0.00 96 1001.5
20260510082004 57 337 0.0 0.0 0.00 0.00 0.00 95 1001.8
20260510081004 58 337 0.0 0.0 0.00 0.00 0.00 95 1001.5
20260510080004 58 338 0.0 0.0 0.00 0.00 0.00 95 1001.5
20260510075505 58 338 0.0 0.9 0.00 0.00 0.00 94 1001.5
20260510075004 58 330 0.0 0.9 0.00 0.00 0.00 94 1001.5
20260510074503 59 330 0.0 0.9 0.00 0.00 0.00 94 1001.3
20260510073004 59 330 0.0 0.0 0.00 0.00 0.00 93 1001.4
20260510072004 60 330 0.0 0.9 0.00 0.00 0.00 92 1001.5
20260510071504 60 330 0.0 0.9 0.00 0.00 0.00 92 1001.5
20260510071004 60 330 0.0 0.0 0.00 0.00 0.00 92 1001.6
20260510070503 60 330 0.0 0.9 0.00 0.00 0.00 91 1001.4
20260510070005 60 330 0.0 0.9 0.00 0.00 0.00 91 1001.3
20260510065504 61 329 0.0 0.0 0.00 0.00 0.00 90 1001.4
20260510065004 61 329 0.0 0.0 0.00 0.00 0.00 90 1001.3
20260510064503 61 329 0.0 0.0 0.00 0.00 0.00 89 1001.3
20260510064004 62 329 0.0 0.0 0.00 0.00 0.00 89 1001.3
20260510063004 62 329 0.0 0.0 0.00 0.00 0.00 88 1001.5
20260510062504 63 329 0.0 0.0 0.00 0.00 0.00 88 1001.6
20260510062003 63 329 0.0 0.0 0.00 0.00 0.00 88 1001.6
20260510061504 63 329 0.0 0.0 0.00 0.00 0.00 88 1001.5
20260510061004 63 334 0.0 0.9 0.00 0.00 0.00 88 1001.6
20260510060003 63 312 0.0 0.9 0.00 0.00 0.00 88 1001.5
20260510055504 63 312 0.0 0.0 0.00 0.00 0.00 87 1001.5
20260510054503 63 312 0.0 0.9 0.00 0.00 0.00 87 1001.5
20260510054004 63 325 0.0 0.9 0.00 0.00 0.00 87 1001.6
20260510053504 63 317 0.0 0.9 0.00 0.00 0.00 87 1001.6
20260510053003 63 322 0.0 0.9 0.00 0.00 0.00 86 1001.7
20260510052504 64 321 0.0 0.9 0.00 0.00 0.00 86 1001.5
20260510052004 64 328 0.0 0.9 0.00 0.00 0.00 86 1001.6
20260510051504 64 329 0.0 0.9 0.00 0.00 0.00 85 1001.7
20260510051005 64 330 0.0 0.9 0.00 0.00 0.00 85 1001.7
20260510050503 64 329 0.0 0.9 0.00 0.00 0.00 84 1001.7
20260510050004 64 329 0.0 0.9 0.00 0.00 0.00 84 1001.7
20260510045504 64 329 0.0 0.9 0.00 0.00 0.00 84 1001.6
20260510045003 64 329 0.0 0.9 0.00 0.00 0.00 84 1001.5
20260510044505 64 332 0.0 0.9 0.00 0.00 0.00 83 1001.7
20260510044004 64 347 0.0 0.9 0.00 0.00 0.00 83 1001.6
20260510043504 64 327 0.0 0.9 0.00 0.00 0.00 83 1001.8
20260510043004 64 345 0.0 0.9 0.00 0.00 0.00 83 1001.6
20260510042503 64 354 0.0 0.9 0.00 0.00 0.00 83 1001.6
20260510042005 64 325 0.0 0.9 0.00 0.00 0.00 82 1001.5
20260510041505 64 357 0.9 0.9 0.00 0.00 0.00 82 1001.4
20260510041004 64 342 0.0 0.9 0.00 0.00 0.00 82 1001.7
20260510040003 64 94 0.0 0.9 0.00 0.00 0.00 82 1001.6
20260510035505 64 97 0.0 0.9 0.00 0.00 0.00 81 1001.4
20260510035004 64 178 0.9 0.9 0.00 0.00 0.00 80 1001.6
20260510034503 65 243 0.0 0.9 0.00 0.00 0.00 80 1001.3
20260510034004 65 212 0.0 0.9 0.00 0.00 0.00 80 1001.6
20260510033504 65 326 0.0 0.9 0.00 0.00 0.00 79 1001.3
20260510033005 65 205 0.0 0.9 0.00 0.00 0.00 79 1001.3
20260510032004 65 298 0.0 0.9 0.00 0.00 0.00 79 1001.1
20260510031504 65 211 0.9 0.9 0.00 0.00 0.00 79 1000.9
20260510030504 65 295 0.0 0.9 0.00 0.00 0.00 77 1001.3
20260510025505 66 296 0.0 1.7 0.00 0.00 0.00 76 1001.3
20260510025003 66 275 0.0 1.7 0.00 0.00 0.00 76 1001.0
20260510024503 66 229 0.9 0.9 0.00 0.00 0.00 76 1001.0
20260510024005 66 275 0.0 0.9 0.00 0.00 0.00 76 1001.1
20260510023503 66 285 0.0 0.0 0.00 0.00 0.00 75 1001.2
20260510023005 66 282 0.0 0.9 0.00 0.00 0.00 75 1001.0
20260510022504 67 286 0.0 0.9 0.00 0.00 0.00 74 1001.0
20260510022005 67 230 0.0 0.9 0.00 0.00 0.00 74 1001.2
20260510021503 67 269 0.0 0.9 0.00 0.00 0.00 73 1000.8
20260510021005 67 154 0.0 0.9 0.00 0.00 0.00 73 1000.8
20260510020504 67 213 0.9 0.9 0.00 0.00 0.00 73 1000.6
20260510020004 67 295 0.9 0.9 0.00 0.00 0.00 73 1000.7
20260510015505 67 244 0.0 0.9 0.00 0.00 0.00 73 1000.6
20260510014505 68 300 0.0 0.0 0.00 0.00 0.00 72 1000.4
20260510014006 68 280 0.0 0.0 0.00 0.00 0.00 71 1000.4
20260510013505 68 279 0.0 0.9 0.00 0.00 0.00 70 1000.2
20260510013005 69 8 0.0 0.9 0.00 0.00 0.00 70 1000.1
20260510012504 69 266 0.9 2.6 0.00 0.00 0.00 69 1000.2
20260510012005 69 223 1.7 2.6 0.00 0.00 0.00 68 1000.3
20260510011504 69 254 0.9 1.7 0.00 0.00 0.00 68 1000.2
20260510011005 69 231 0.9 1.7 0.00 0.00 0.00 67 999.9
20260510010505 70 209 0.0 0.9 0.00 0.00 0.00 67 1000.0
20260510010005 69 242 0.9 0.9 0.00 0.00 0.00 67 999.8
20260510005506 70 243 0.9 0.9 0.00 0.00 0.00 67 999.9
20260510005004 70 250 0.9 1.7 0.00 0.00 0.00 67 999.8
20260510004505 70 256 0.0 1.7 0.00 0.00 0.00 66 999.7
20260510004005 70 258 0.9 1.7 0.00 0.00 0.00 66 999.7
20260510003506 70 239 0.0 0.9 0.00 0.00 0.00 65 999.6
20260510003005 70 343 0.0 0.9 0.00 0.00 0.00 65 999.7
20260510002504 71 249 0.0 0.0 0.00 0.00 0.00 65 999.6
20260510002005 71 297 0.0 0.0 0.00 0.00 0.00 64 999.4
20260510001506 71 334 0.0 0.0 0.00 0.00 0.00 63 999.3
20260510001005 71 333 0.0 0.9 0.00 0.00 0.00 62 999.3
20260510000506 72 345 0.0 0.9 0.00 0.00 0.00 62 999.3
20260510000004 72 347 0.0 0.9 0.00 0.00 0.00 61 999.2
20260509235505 72 257 0.0 0.9 0.00 0.00 0.00 60 999.1
20260509235004 73 206 0.0 0.9 0.00 0.00 0.00 60 999.2
20260509234505 73 319 0.0 0.9 0.00 0.00 0.00 60 999.1
20260509234005 73 303 0.0 0.9 0.00 0.00 0.00 60 999.3
20260509233005 74 0 0.0 0.9 0.00 0.00 0.00 58 999.1
20260509232506 74 340 0.0 0.9 0.00 0.00 0.00 58 998.8
20260509232006 74 4 0.0 1.7 0.00 0.00 0.00 57 999.1
20260509231505 74 285 0.0 1.7 0.00 0.00 0.00 56 998.9
20260509231004 74 322 0.9 0.9 0.00 0.00 0.00 56 999.2
20260509230505 74 138 0.0 0.9 0.00 0.00 0.00 55 999.1
20260509230004 75 132 0.0 0.9 0.00 0.00 0.00 55 999.2
20260509225504 75 287 0.0 1.7 0.00 0.00 0.00 54 999.0
20260509225006 75 212 0.9 1.7 0.00 0.00 0.00 53 998.9
20260509224504 76 293 0.9 1.7 0.00 0.00 0.00 52 998.9
20260509224005 76 253 0.9 1.7 0.00 0.00 0.00 52 999.0
20260509223006 76 306 0.9 1.7 0.00 0.00 0.00 53 999.0
20260509222504 75 223 0.9 2.6 0.00 0.00 0.00 52 999.1
20260509222005 75 359 0.0 2.6 0.00 0.00 0.00 54 998.9
20260509221505 75 213 0.9 2.6 0.00 0.00 0.00 52 999.0
20260509221006 75 201 0.0 1.7 0.00 0.00 0.00 54 998.9
20260509220506 75 188 0.9 1.7 0.00 0.00 0.00 53 999.1
20260509215505 75 338 0.0 1.7 0.00 0.00 0.00 52 999.0
20260509215005 75 282 0.9 1.7 0.00 0.00 0.00 53 999.0
20260509214505 75 319 0.0 0.9 0.00 0.00 0.00 53 998.9
20260509214006 75 296 0.9 1.7 0.00 0.00 0.00 51 998.9
20260509213505 76 314 0.9 1.7 0.00 0.00 0.00 51 998.9
20260509213005 76 300 0.9 1.7 0.00 0.00 0.00 51 998.7
20260509212504 76 315 0.9 1.7 0.00 0.00 0.00 51 998.8
20260509212004 76 290 0.9 1.7 0.00 0.00 0.00 50 998.8
20260509211504 76 0 0.9 0.9 0.00 0.00 0.00 53 998.7
20260509211005 76 340 0.0 1.7 0.00 0.00 0.00 52 998.6
20260509210504 76 310 0.9 2.6 0.00 0.00 0.00 52 998.8
20260509205506 76 207 0.9 2.6 0.00 0.00 0.00 52 998.7
20260509205004 76 312 0.9 1.7 0.00 0.00 0.00 51 998.6
20260509204505 76 185 0.9 2.6 0.00 0.00 0.00 52 998.9
20260509204005 76 260 1.7 2.6 0.00 0.00 0.00 53 998.8
20260509203504 76 242 0.9 2.6 0.00 0.00 0.00 52 998.8
20260509203005 76 304 0.0 2.6 0.00 0.00 0.00 53 998.6
20260509202504 76 315 1.7 2.6 0.00 0.00 0.00 54 998.8
20260509202005 75 303 0.9 1.7 0.00 0.00 0.00 55 998.9
20260509201504 74 327 0.0 1.7 0.00 0.00 0.00 56 998.9
20260509201004 75 288 0.9 1.7 0.00 0.00 0.00 56 999.0
20260509200506 75 274 0.9 1.7 0.00 0.00 0.00 55 998.9
20260509195505 73 302 0.9 0.9 0.00 0.00 0.00 56 999.2
20260509195004 73 300 0.9 1.7 0.00 0.00 0.00 57 999.4
20260509194505 73 294 0.0 1.7 0.00 0.00 0.00 57 999.3
20260509194004 73 12 0.9 2.6 0.00 0.00 0.00 55 999.3
20260509193504 74 314 0.9 2.6 0.00 0.00 0.00 55 999.3
20260509192504 74 187 0.9 1.7 0.00 0.00 0.00 54 999.5
20260509192005 74 318 0.9 1.7 0.00 0.00 0.00 55 999.7
20260509191504 75 0 0.9 1.7 0.00 0.00 0.00 52 999.5
20260509191004 75 65 0.0 1.7 0.00 0.00 0.00 53 999.4
20260509190504 75 318 0.9 1.7 0.00 0.00 0.00 55 999.6
20260509190004 73 299 0.9 1.7 0.00 0.00 0.00 54 999.6
20260509185505 73 322 0.0 1.7 0.00 0.00 0.00 55 999.8
20260509185005 73 349 0.9 1.7 0.00 0.00 0.00 54 1000.0
20260509183504 74 313 0.9 2.6 0.00 0.00 0.00 52 1000.0
20260509183005 75 229 1.7 2.6 0.00 0.00 0.00 50 1000.0
20260509182504 76 188 0.9 2.6 0.00 0.00 0.00 50 1000.1
20260509182004 76 286 0.9 1.7 0.00 0.00 0.00 50 1000.1
20260509181506 75 258 0.9 1.7 0.00 0.00 0.00 52 1000.3
20260509181004 75 258 0.9 6.1 0.00 0.00 0.00 52 1000.1
20260509180504 76 294 0.9 6.1 0.00 0.00 0.00 50 1000.3
20260509180006 75 216 1.7 2.6 0.00 0.00 0.00 51 1000.2
20260509175504 74 241 0.9 1.7 0.00 0.00 0.00 53 1000.4
20260509174505 74 238 0.9 5.2 0.00 0.00 0.00 53 1000.4
20260509174004 74 99 0.9 5.2 0.00 0.00 0.00 51 1000.4
20260509172505 75 167 0.9 2.6 0.00 0.00 0.00 51 1000.6
20260509172004 75 321 0.9 2.6 0.00 0.00 0.00 53 1000.4
20260509171505 75 296 0.9 1.7 0.00 0.00 0.00 51 1000.6
20260509171004 74 74 0.9 4.3 0.00 0.00 0.00 53 1000.6
20260509170504 75 314 0.0 4.3 0.00 0.00 0.00 54 1000.6
20260509170004 74 193 0.9 2.6 0.00 0.00 0.00 53 1000.6
20260509165504 73 27 0.9 1.7 0.00 0.00 0.00 55 1000.9
20260509164504 72 301 0.9 5.2 0.00 0.00 0.00 56 1001.3
20260509164004 73 324 0.9 4.3 0.00 0.00 0.00 55 1001.2
20260509163004 74 262 0.9 4.3 0.00 0.00 0.00 52 1001.4
20260509162505 74 215 1.7 4.3 0.00 0.00 0.00 51 1001.5
20260509162005 74 232 0.9 2.6 0.00 0.00 0.00 54 1001.1
20260509161506 72 271 0.9 2.6 0.00 0.00 0.00 56 1001.0
20260509161004 72 254 0.9 4.3 0.00 0.00 0.00 55 1001.1
20260509160505 73 195 0.9 4.3 0.00 0.00 0.00 53 1001.5
20260509160006 73 167 1.7 4.3 0.00 0.00 0.00 55 1001.4
20260509155504 73 24 0.0 4.3 0.00 0.00 0.00 56 1001.4
20260509155004 72 150 1.7 4.3 0.00 0.00 0.00 55 1001.6
20260509154504 72 103 0.9 2.6 0.00 0.00 0.00 56 1001.5
20260509154005 71 326 0.9 2.6 0.00 0.00 0.00 59 1001.8